Powrót do katalogu

TITAN 3C TRANSTAGE DEB

AktywnyHEO
NORAD 5998·DEBRIS·🇺🇸 United States

Wystrzelony Dec 21, 1965 z Cape Canaveral Space Force Station

Loading…

Następne Przeloty (najbliższe 24 godziny)

TLE

ŚwieżeSource: Space-Track

Epoka: Sep 13, 2026, 06:14 UTC

1  5998U 65108T   26256.26006639  .00002007  00000-0  94946-2 0  9997
2  5998  26.5786 349.6910 6579503 180.9255 216.4942  3.03873286151403

Śledź TITAN 3C TRANSTAGE DEB w czasie rzeczywistym z AllMySat

Download on the App Store